Broomfield, CO

2:29 AM MDT on April 23, 2018 (GMT -0600)
Jeffco

Weather History for KBJC - November, 2014

Change the Weather History Date:

Saturday, November 15, 2014

  Actual Average Record
Temperature  
Mean Temperature 20 °F -  
Max Temperature 30 °F 50 °F 78 °F (2016)
Min Temperature 10 °F 30 °F -32 °F (1986)
Degree Days  
Heating Degree Days 45    
Moisture  
Dew Point 13 °F    
Average Humidity 84    
Maximum Humidity 93    
Minimum Humidity 69    
Precipitation  
Precipitation 0.00 in - - ()
Sea Level Pressure  
Sea Level Pressure 29.93 in    
Wind  
Wind Speed 4 mph (ENE)    
Max Wind Speed 13 mph    
Max Gust Speed 24 mph    
Visibility 6 miles    
Events Snow    
Averages and records for this station are not official NWS values.
T = Trace of Precipitation, MM = Missing Value Source: NWS Daily Summary

Daily Weather History Graph

Daily Weather History Graph

Search for Another Location

Airport or City:

Astronomy

Nov. 15, 2014 Rise Set
Actual Time 6:45 AM MST 4:44 PM MST
Civil Twilight 6:16 AM MST 5:13 PM MST
Nautical Twilight 5:43 AM MST 5:45 PM MST
Astronomical Twilight 5:11 AM MST 6:17 PM MST
Moon 12:00 AM MST (11/15) 1:08 PM MST (11/15)
Length of Visible Light 10h 56m
Length of Day
9h 58m
Last Quarter, 39% of the Moon is Illuminated
Nov 15
Last Quarter
Nov 22
New
Nov 29
First Quarter
Dec 6
Full
Dec 14
Last Quarter

Hourly Weather History & Observations

Time (MST) Temp. Windchill Dew Point Humidity Pressure Visibility Wind Dir Wind Speed Gust Speed Precip Events Conditions
12:15 AM 23.0 °F 18.4 °F 17.6 °F 80% 29.75 in 10.0 mi North 3.5 mph - N/A   Clear
12:35 AM 21.2 °F - 17.6 °F 86% 29.74 in 7.0 mi Calm Calm - N/A   Clear
12:54 AM 21.2 °F 12.6 °F 17.6 °F 86% 29.74 in 10.0 mi NW 6.9 mph - N/A   Clear
1:15 AM 24.8 °F - 17.6 °F 74% 29.73 in 10.0 mi Calm Calm - N/A   Clear
1:35 AM 26.6 °F - 17.6 °F 69% 29.72 in 10.0 mi Calm Calm - N/A   Clear
1:55 AM 24.8 °F - 17.6 °F 74% 29.72 in 10.0 mi Calm Calm - N/A   Clear
2:15 AM 23.0 °F 15.8 °F 17.6 °F 80% 29.72 in 10.0 mi WSW 5.8 mph - N/A   Clear
2:35 AM 26.6 °F 22.6 °F 19.4 °F 74% 29.72 in 10.0 mi SW 3.5 mph - N/A   Clear
2:55 AM 30.2 °F 26.7 °F 23.0 °F 75% 29.71 in 10.0 mi SSW 3.5 mph - N/A   Clear
3:15 AM 28.4 °F - 21.2 °F 74% 29.71 in 10.0 mi Calm Calm - N/A   Clear
3:35 AM 30.2 °F - 23.0 °F 75% 29.71 in 10.0 mi Calm Calm - N/A   Clear
3:55 AM 24.8 °F 13.4 °F 17.6 °F 74% 29.73 in 10.0 mi NNE 12.7 mph - N/A   Clear
4:15 AM 21.2 °F 9.5 °F 17.6 °F 86% 29.75 in 10.0 mi North 11.5 mph - N/A   Clear
4:35 AM 21.2 °F 9.5 °F 17.6 °F 86% 29.76 in 7.0 mi North 11.5 mph 24.2 mph N/A   Clear
4:55 AM 21.2 °F 13.6 °F 17.6 °F 86% 29.77 in 10.0 mi NNE 5.8 mph 24.2 mph N/A   Clear
5:45 AM 21.2 °F 10.9 °F 17.6 °F 86% 29.83 in 7.0 mi North 9.2 mph - N/A   Overcast
7:47 AM 17.6 °F 5.7 °F 15.8 °F 93% 29.95 in 4.0 mi NNE 10.4 mph - N/A Snow Light Snow
8:55 AM 15.8 °F 3.4 °F 12.2 °F 86% 29.98 in 2.0 mi NE 10.4 mph - N/A Snow Light Snow
9:47 AM 15.8 °F 5.1 °F 12.2 °F 86% 30.01 in 1.0 mi NNE 8.1 mph - N/A Snow Light Snow
10:50 AM 17.6 °F 8.2 °F 12.2 °F 79% 30.02 in 1.0 mi ENE 6.9 mph - N/A Snow Light Snow
11:45 AM 15.8 °F 7.2 °F 10.4 °F 79% 30.01 in 1.0 mi ENE 5.8 mph - N/A Snow Light Snow
12:20 PM 12.2 °F -1.8 °F 10.4 °F 92% 30.00 in 0.5 mi ENE 11.5 mph - N/A Snow Snow
12:47 PM 12.2 °F 0.7 °F 8.6 °F 85% 30.01 in 0.5 mi NNE 8.1 mph - N/A Snow Snow
1:47 PM 12.2 °F 2.9 °F 8.6 °F 85% 30.00 in 0.5 mi East 5.8 mph - N/A Snow Snow
2:47 PM 12.2 °F - 8.6 °F 85% 30.03 in 1.8 mi Calm Calm - N/A Snow Light Snow
3:47 PM 12.2 °F - 8.6 °F 85% 30.03 in 1.5 mi Calm Calm - N/A Snow Light Snow
4:47 PM 12.2 °F 1.7 °F 8.6 °F 85% 30.04 in 0.5 mi ENE 6.9 mph - N/A Snow Snow
5:47 PM 12.2 °F 2.9 °F 8.6 °F 85% 30.08 in 1.0 mi East 5.8 mph - N/A Snow Light Snow
6:47 PM 10.4 °F 0.8 °F 8.6 °F 92% 30.10 in 1.5 mi ESE 5.8 mph - N/A Snow Light Snow
7:11 PM 10.4 °F 0.8 °F 8.6 °F 92% 30.11 in 3.0 mi East 5.8 mph - N/A Snow Light Snow
7:47 PM 10.4 °F -2.4 °F 6.8 °F 85% 30.12 in 2.8 mi East 9.2 mph - N/A Snow Light Snow
8:47 PM 10.4 °F 4.0 °F 6.8 °F 85% 30.12 in 4.0 mi East 3.5 mph - N/A Snow Light Snow
9:47 PM 10.4 °F - 6.8 °F 85% 30.12 in 15.0 mi Calm Calm - N/A   Overcast
10:15 PM 10.4 °F - 8.6 °F 92% 30.13 in 10.0 mi Calm Calm - N/A   Overcast
10:35 PM 10.4 °F 4.0 °F 8.6 °F 92% 30.12 in 10.0 mi East 3.5 mph - N/A Snow Light Snow
10:55 PM 10.4 °F 0.8 °F 8.6 °F 92% 30.12 in 5.0 mi East 5.8 mph - N/A Snow Light Snow
11:15 PM 10.4 °F 0.8 °F 8.6 °F 92% 30.10 in 5.0 mi East 5.8 mph - N/A Snow Light Snow
11:35 PM 10.4 °F 2.2 °F 6.8 °F 85% 30.09 in 7.0 mi East 4.6 mph - N/A Snow Light Snow
11:54 PM 10.4 °F 2.2 °F 5.0 °F 79% 30.09 in 10.0 mi East 4.6 mph - N/A Snow Light Snow